Wind_Speed
18 17 17 16 16 16 17 18 20 20 20 18 18 19 19 19 21 21 22 23 24 26 27 29 30 29 27 22 17 15 16 16 15 14 17 20 21 22 23 25 26 29 32 34 37
22 21 21 21 20 20 20 20 19 19 18 17 17 17 18 19 19 20 21 21 22 23 25 26 27 28 27 27 23 20 17 17 18 18 15 16 18 20 21 22 24 27 30 33 36
21 20 20 20 19 18 18 18 17 17 16 15 17 17 19 19 18 21 21 20 21 21 21 23 23 24 25 25 23 21 21 22 21 19 17 17 16 16 20 23 24 27 30 32 35
15 16 16 15 14 14 14 14 13 12 12 11 11 14 15 18 19 21 21 21 21 21 20 21 22 23 23 23 20 20 21 23 23 22 22 20 19 19 16 14 16 17 18 22 26
11 11 12 13 13 14 13 13 13 12 11 9 9 11 15 17 18 20 21 21 21 22 22 21 19 19 20 21 22 22 25 27 29 15 13 11 11 9 11 11 7 10 11 13 18
15 13 12 13 12 13 14 15 15 14 15 14 13 13 15 17 17 19 21 21 22 21 22 23 20 18 18 20 22 24 27 32 24 14 11 10 7 7 9 10 13 17 17 19 20
18 17 16 15 15 17 17 16 15 15 16 15 14 15 16 18 18 19 20 21 21 22 22 23 22 20 18 20 21 22 24 29 18 9 8 10 9 11 12 13 10 15 17 27 34
17 18 16 17 17 17 18 20 20 19 18 15 12 12 14 15 16 19 19 20 22 22 22 23 22 21 20 19 21 21 22 26 18 12 10 9 9 8 9 13 16 24 32 37 38
15 16 15 16 16 15 18 20 21 22 20 18 17 15 15 15 17 18 19 20 22 22 22 22 22 21 20 20 19 21 21 21 23 17 15 15 13 13 13 17 27 33 36 35 29
13 17 16 13 14 15 18 20 21 23 23 21 18 19 18 19 20 21 22 22 22 21 21 21 21 22 22 22 23 21 21 22 21 18 22 20 20 22 24 26 35 22 23 27 31
11 15 17 15 16 18 17 20 25 24 23 21 18 20 19 20 22 23 23 22 23 22 22 21 22 23 23 23 22 24 23 21 21 22 19 24 29 30 29 33 18 20 25 24 23
9 12 15 18 17 17 16 22 24 24 24 23 19 20 21 21 24 25 26 25 23 24 24 25 23 24 25 25 26 25 25 26 23 22 23 24 25 23 23 19 16 19 24 26 20
11 12 14 16 15 16 19 23 25 25 26 22 21 21 22 25 26 27 27 27 26 25 26 26 26 24 25 26 27 27 26 27 29 27 25 24 23 23 21 18 18 18 20 24 23
12 13 16 18 18 17 20 24 25 27 27 25 22 21 22 26 27 28 27 26 26 27 27 28 28 28 28 28 29 30 31 30 30 30 31 26 23 25 23 21 21 18 19 23 28
14 13 15 17 17 18 22 22 25 27 28 28 24 20 22 26 29 31 29 27 26 28 28 28 30 30 30 30 29 29 30 31 31 30 31 31 28 22 23 21 19 19 17 19 23
15 17 18 19 19 21 24 23 26 28 30 31 26 21 24 28 32 33 30 26 25 28 28 30 30 31 32 30 29 28 29 30 30 32 30 33 32 23 24 22 19 19 17 17 21
16 18 21 21 22 23 25 25 27 26 29 30 28 25 26 30 32 30 27 24 24 26 29 31 29 31 31 32 32 31 31 33 34 35 33 33 37 30 25 24 21 19 17 16 17
18 19 21 23 24 24 24 25 25 25 24 28 30 30 29 29 29 27 26 26 26 29 32 32 33 33 34 35 34 31 31 32 34 35 34 33 37 34 29 22 21 21 20 19 18
23 24 25 24 25 23 24 22 24 25 26 28 30 33 32 29 27 25 26 29 30 31 34 36 35 34 35 36 35 33 33 34 35 35 35 33 33 34 29 27 23 24 23 21 19
27 26 26 26 24 24 24 24 25 26 24 27 28 30 32 29 26 28 32 34 32 33 35 35 33 36 36 38 34 33 34 35 35 36 38 36 32 33 29 29 30 27 26 25 23
30 27 27 27 27 26 26 26 28 26 26 29 27 29 32 28 28 33 36 33 31 34 36 36 35 35 35 38 34 32 33 35 37 37 38 37 35 32 28 27 29 32 30 28 27
31 29 28 28 27 28 29 29 30 26 30 28 28 29 30 30 32 34 30 30 31 35 36 35 36 37 35 37 34 29 32 35 37 37 35 39 32 32 28 28 29 33 36 35 33
30 29 29 28 28 28 29 30 27 29 33 30 29 30 31 31 32 30 30 30 33 36 37 37 37 40 37 40 40 31 31 36 37 37 34 36 31 29 31 29 32 34 33 35 37
30 29 30 29 29 29 29 29 29 32 35 32 32 31 33 31 34 36 33 32 34 35 36 37 36 37 36 37 39 29 31 37 37 36 39 27 31 32 31 30 29 29 33 32 34
34 32 32 31 29 29 29 31 34 36 35 34 33 34 35 35 36 34 31 31 34 35 37 37 35 38 34 36 38 31 33 37 39 35 39 33 35 35 33 34 31 29 27 28 30
38 36 34 32 30 32 34 36 36 37 38 37 37 35 37 36 38 37 34 36 35 36 38 38 37 39 35 37 39 33 32 36 38 39 40 41 38 38 34 33 34 31 29 26 26
40 40 38 36 34 35 36 39 39 41 41 40 39 38 38 39 39 39 37 38 40 38 43 41 40 40 41 40 41 38 35 39 40 42 43 44 43 40 38 35 35 35 35 33 33
Wind_Direction
66 61 60 61 60 59 59 60 59 55 54 48 40 34 28 19 16 13 10 6 9 11 11 10 12 9 7 6 3 347 338 337 331 312 285 282 280 277 274 272 271 271 270 269 268
60 57 54 53 55 53 52 52 53 51 48 41 33 26 19 12 9 5 4 0 0 3 4 6 11 7 4 4 6 5 357 346 335 329 318 301 292 289 290 290 286 282 278 277 275
55 54 53 50 47 47 45 43 41 44 44 49 41 35 29 19 14 12 4 359 355 358 356 357 5 7 1 5 1 0 350 339 336 330 321 316 306 293 289 285 282 283 282 278 275
48 50 49 48 45 44 40 37 36 39 46 52 37 28 21 18 15 13 9 7 2 358 353 349 355 359 356 357 353 353 345 338 334 322 312 303 292 289 286 281 287 295 292 288 287
36 37 35 29 26 24 18 13 9 7 2 11 14 12 6 0 2 359 3 4 3 4 358 352 349 349 347 349 348 351 353 346 342 3 24 4 332 323 306 313 327 327 309 300 290
42 41 35 29 21 8 0 360 357 348 349 347 339 342 346 349 347 346 347 352 357 356 355 354 350 342 339 341 346 351 351 348 353 9 11 4 342 315 307 317 326 331 326 316 303
45 50 52 44 40 40 33 23 10 2 350 340 336 333 335 336 336 335 336 338 343 347 348 349 353 346 338 337 344 341 343 348 344 346 347 333 340 344 331 319 307 305 307 307 304
43 45 47 44 40 40 37 30 24 20 12 6 4 353 347 344 342 343 342 335 334 335 339 342 347 346 342 338 335 337 332 338 334 302 308 300 304 311 322 328 293 307 306 301 297
46 44 43 37 32 33 27 22 24 20 17 18 15 11 4 356 354 351 349 345 342 337 333 335 335 337 341 338 331 330 332 329 337 301 290 295 297 285 287 306 307 307 307 297 311
38 38 35 32 27 23 24 25 20 17 17 16 14 9 8 2 360 357 354 354 352 348 340 333 329 329 331 335 334 330 326 327 324 310 284 286 289 290 297 300 317 317 308 313 320
28 26 27 22 13 7 14 16 14 11 8 9 11 10 4 3 2 357 355 354 352 351 346 339 333 327 325 322 325 325 324 325 321 320 323 314 289 290 296 306 315 336 331 328 328
17 19 24 20 21 25 15 13 7 7 3 359 359 2 359 353 349 352 353 352 349 349 347 345 340 334 325 317 316 318 324 323 320 316 317 322 324 330 311 310 312 330 334 333 330
22 9 8 8 10 14 12 6 6 4 2 355 352 348 349 350 346 343 341 344 345 347 345 347 345 342 334 323 315 309 313 317 321 319 317 315 317 323 320 324 335 334 336 340 341
7 360 1 0 358 354 355 356 356 356 354 348 346 343 343 345 346 346 339 339 344 346 347 346 343 343 342 336 330 319 315 312 312 315 317 316 312 318 322 322 327 329 341 346 345
8 355 355 358 350 347 345 346 352 351 353 349 343 338 338 339 342 343 340 338 343 343 348 346 344 343 340 341 339 331 323 313 309 305 312 313 312 312 318 317 317 320 329 336 340
355 348 347 348 353 344 343 345 345 349 353 354 348 340 339 340 337 336 338 339 339 341 346 343 344 343 341 343 339 337 333 326 319 310 310 306 302 309 311 311 305 310 316 325 331
336 339 340 339 341 343 349 349 349 342 343 345 347 340 334 333 334 337 339 339 340 341 342 342 343 342 343 344 344 342 341 335 330 326 320 311 304 295 300 303 300 301 305 315 323
320 325 328 329 332 336 342 343 346 346 339 341 342 338 332 333 334 339 342 338 339 337 338 342 339 343 344 342 344 345 343 336 332 330 325 319 317 315 295 288 293 300 302 303 311
312 316 320 323 325 328 334 337 340 341 342 339 338 338 335 334 333 334 339 336 334 334 338 340 340 340 341 341 342 345 340 335 336 335 333 331 323 323 308 280 280 286 295 299 300
304 309 314 317 318 320 325 329 331 331 338 338 333 336 334 332 333 335 336 331 330 332 335 338 341 339 339 338 338 342 336 335 338 337 336 334 331 329 322 295 276 278 280 288 291
298 302 308 311 312 313 317 322 325 324 328 330 328 330 329 328 330 330 329 327 330 332 337 336 339 338 334 335 335 342 334 330 333 336 337 331 340 332 331 319 295 282 276 274 278
295 300 304 307 308 309 313 317 319 318 325 325 325 326 326 322 324 322 325 326 330 331 334 336 335 333 333 331 333 341 332 328 328 334 336 327 341 323 322 314 303 294 290 280 276
292 296 299 302 305 308 311 315 315 315 320 318 317 316 321 320 323 321 321 323 327 328 329 330 333 331 327 328 329 335 329 324 323 333 333 330 331 327 322 319 313 304 293 285 282
286 290 294 299 303 307 311 313 312 312 313 311 311 308 314 313 320 316 317 319 323 325 326 327 330 326 325 325 321 331 329 322 319 326 325 328 332 318 326 322 317 312 301 291 287
290 292 295 299 302 305 306 307 309 308 306 307 307 304 305 307 312 312 312 314 321 322 323 323 322 326 323 323 318 324 324 322 317 317 320 321 322 317 318 319 318 316 310 301 291
289 291 293 297 298 301 307 306 306 306 304 302 303 303 302 303 309 308 308 313 317 321 320 320 318 319 324 318 317 318 318 320 320 320 320 318 318 312 312 311 309 308 307 306 301
288 290 292 294 293 295 304 305 305 304 299 298 299 298 299 301 308 307 306 310 313 316 321 318 315 313 319 315 313 316 317 313 313 316 315 315 313 312 308 307 302 301 302 304 300
Height
5844 5843 5841 5840 5838 5836 5835 5834 5832 5830 5829 5827 5826 5824 5822 5820 5817 5814 5812 5810 5807 5804 5799 5797 5792 5786 5782 5778 5776 5773 5771 5769 5768 5766 5764 5763 5763 5763 5763 5764 5764 5764 5764 5765 5764
5847 5845 5843 5842 5840 5839 5838 5836 5834 5833 5831 5829 5827 5826 5824 5822 5819 5816 5813 5810 5807 5804 5800 5796 5792 5787 5782 5779 5775 5772 5770 5766 5765 5763 5761 5760 5759 5758 5758 5758 5758 5758 5758 5757 5757
5850 5848 5847 5845 5843 5842 5840 5839 5837 5835 5833 5832 5830 5828 5825 5822 5820 5816 5813 5810 5807 5804 5801 5797 5793 5788 5782 5780 5776 5772 5769 5765 5763 5760 5758 5757 5756 5755 5753 5752 5752 5751 5750 5749 5749
5853 5851 5849 5848 5846 5844 5843 5841 5839 5837 5835 5833 5831 5828 5826 5823 5821 5816 5812 5809 5806 5803 5800 5796 5793 5788 5783 5780 5777 5774 5769 5765 5761 5758 5755 5753 5752 5750 5749 5747 5746 5746 5745 5742 5740
5854 5853 5851 5849 5847 5845 5844 5842 5840 5838 5836 5833 5831 5828 5826 5823 5820 5816 5812 5810 5807 5803 5799 5795 5792 5788 5783 5779 5776 5771 5767 5763 5758 5754 5752 5751 5749 5749 5748 5746 5744 5742 5740 5738 5735
5855 5853 5852 5850 5848 5846 5844 5842 5840 5837 5835 5832 5830 5827 5825 5823 5819 5815 5812 5809 5806 5803 5799 5795 5790 5787 5784 5779 5776 5772 5768 5762 5757 5755 5754 5752 5751 5749 5748 5745 5741 5738 5735 5733 5731
5856 5854 5853 5851 5849 5847 5845 5842 5839 5836 5834 5831 5828 5826 5824 5822 5818 5814 5811 5808 5805 5802 5798 5794 5790 5787 5783 5779 5775 5771 5768 5763 5758 5755 5753 5753 5752 5749 5746 5742 5739 5737 5734 5730 5726
5858 5856 5855 5853 5851 5849 5846 5843 5840 5836 5834 5831 5827 5825 5823 5819 5816 5812 5810 5806 5803 5799 5796 5792 5789 5785 5781 5778 5774 5770 5766 5762 5758 5754 5753 5751 5749 5746 5743 5741 5738 5734 5729 5723 5717
5861 5858 5857 5855 5853 5851 5848 5845 5842 5839 5836 5831 5828 5826 5823 5819 5815 5812 5808 5805 5801 5798 5794 5790 5786 5782 5779 5776 5772 5768 5765 5761 5757 5753 5750 5749 5746 5744 5740 5737 5734 5729 5723 5716 5710
5862 5860 5858 5856 5854 5852 5849 5846 5844 5841 5837 5833 5830 5829 5824 5820 5816 5812 5809 5804 5800 5796 5792 5788 5783 5780 5777 5773 5770 5767 5762 5758 5755 5753 5749 5746 5743 5740 5737 5733 5729 5723 5716 5711 5705
5863 5861 5859 5856 5854 5852 5850 5848 5845 5842 5838 5835 5832 5828 5825 5822 5817 5813 5808 5803 5798 5794 5790 5785 5782 5778 5775 5771 5767 5762 5758 5756 5752 5749 5746 5741 5738 5735 5731 5728 5723 5717 5712 5708 5702
5863 5862 5860 5858 5855 5853 5851 5847 5845 5843 5839 5835 5832 5828 5825 5821 5817 5812 5808 5804 5798 5793 5789 5786 5781 5777 5773 5769 5765 5761 5757 5752 5748 5744 5742 5738 5734 5729 5726 5724 5720 5714 5708 5702 5697
5864 5863 5861 5858 5856 5853 5851 5849 5844 5841 5839 5835 5831 5827 5824 5821 5816 5811 5807 5802 5797 5793 5788 5784 5780 5775 5770 5766 5762 5758 5754 5750 5746 5741 5737 5734 5731 5727 5724 5720 5716 5711 5705 5699 5694
5865 5863 5861 5858 5857 5853 5850 5847 5844 5840 5838 5834 5830 5827 5822 5818 5815 5809 5804 5801 5796 5791 5786 5782 5776 5771 5767 5763 5759 5754 5750 5747 5742 5739 5734 5729 5727 5723 5719 5716 5713 5708 5702 5696 5690
5864 5862 5860 5858 5856 5854 5851 5847 5843 5840 5835 5833 5828 5824 5820 5817 5812 5807 5802 5797 5793 5788 5785 5779 5773 5767 5762 5759 5755 5751 5745 5741 5738 5734 5732 5725 5722 5719 5716 5713 5710 5705 5700 5695 5691
5863 5861 5859 5857 5855 5853 5849 5845 5842 5839 5833 5829 5825 5821 5818 5814 5809 5804 5799 5795 5791 5785 5781 5776 5770 5765 5759 5754 5750 5745 5741 5735 5732 5729 5728 5722 5716 5716 5711 5709 5706 5702 5698 5693 5690
5861 5859 5857 5855 5853 5850 5847 5844 5841 5836 5834 5829 5825 5821 5816 5812 5806 5802 5797 5793 5789 5785 5779 5773 5767 5762 5756 5751 5746 5741 5737 5731 5726 5722 5720 5715 5710 5709 5706 5703 5701 5699 5696 5692 5688
5859 5857 5854 5852 5849 5847 5844 5841 5838 5834 5830 5827 5822 5818 5813 5808 5804 5799 5795 5791 5786 5781 5777 5771 5764 5758 5752 5746 5742 5738 5733 5727 5721 5717 5714 5710 5705 5703 5699 5697 5695 5693 5691 5689 5686
5855 5853 5851 5848 5845 5843 5841 5838 5834 5830 5827 5823 5819 5815 5810 5805 5800 5795 5792 5787 5783 5778 5774 5768 5761 5754 5750 5744 5740 5735 5729 5724 5719 5714 5707 5705 5700 5696 5693 5691 5689 5687 5685 5684 5682
5850 5848 5846 5844 5841 5839 5837 5833 5830 5826 5823 5819 5815 5811 5806 5802 5797 5792 5788 5784 5779 5774 5769 5764 5759 5752 5747 5742 5737 5732 5726 5720 5715 5709 5703 5699 5697 5692 5688 5685 5683 5681 5679 5678 5677
5846 5844 5842 5840 5837 5835 5832 5828 5825 5821 5819 5815 5811 5807 5803 5798 5794 5789 5784 5780 5774 5770 5765 5760 5755 5749 5743 5739 5734 5729 5722 5716 5710 5706 5700 5693 5694 5687 5684 5681 5678 5675 5673 5671 5670
5840 5839 5837 5835 5833 5830 5827 5824 5821 5818 5814 5811 5807 5802 5798 5793 5790 5784 5780 5774 5770 5765 5760 5755 5751 5745 5740 5734 5730 5726 5718 5711 5706 5702 5698 5690 5691 5682 5679 5676 5673 5669 5667 5665 5664
5833 5832 5831 5829 5827 5824 5822 5819 5816 5813 5810 5806 5802 5798 5793 5788 5784 5779 5775 5770 5765 5760 5755 5751 5745 5740 5735 5730 5723 5721 5715 5708 5702 5697 5694 5686 5684 5677 5672 5669 5665 5662 5660 5658 5657
5827 5826 5825 5822 5820 5818 5816 5813 5810 5807 5803 5799 5796 5792 5787 5783 5780 5775 5770 5765 5760 5755 5750 5745 5742 5736 5731 5726 5718 5716 5711 5703 5697 5693 5686 5685 5680 5673 5669 5664 5660 5656 5653 5651 5649
5819 5819 5817 5816 5814 5811 5809 5806 5803 5800 5796 5793 5789 5786 5781 5778 5775 5770 5766 5760 5755 5750 5745 5740 5736 5730 5727 5720 5713 5712 5707 5700 5693 5689 5681 5679 5673 5668 5664 5660 5655 5650 5647 5644 5641
5812 5811 5810 5808 5806 5803 5801 5798 5795 5792 5789 5785 5782 5778 5774 5770 5767 5763 5758 5754 5750 5745 5739 5734 5729 5724 5721 5714 5708 5707 5702 5695 5687 5682 5676 5670 5668 5661 5657 5653 5649 5646 5642 5638 5635
5802 5802 5801 5800 5798 5795 5794 5789 5786 5783 5780 5776 5774 5770 5765 5762 5759 5755 5751 5746 5741 5736 5730 5725 5719 5715 5712 5707 5700 5700 5695 5688 5682 5675 5669 5663 5658 5654 5650 5645 5641 5637 5633 5631 5630